星链-30388 (STARLINK-30388 )

导读

STARLINK-30388是美国太空探索技术公司(SpaceX)星链(Starlink)低轨互联网卫星星座中的一员,于2023年9月4日发射入轨。它作为星链项目批量部署的卫星之一,运行在近地轨道,旨在为全球尤其是网络基础设施匮乏的偏远地区提供高速、低延迟的宽带互联网接入服务,支撑星链星座实现全球覆盖的组网目标。

基本信息
目录编号:
57784
目录名称:
STARLINK-30388
国际标识:
2023-134P
轨道中心:
EARTH
卫星名称:
星链-30388
卫星全名:
星链-30388 (STARLINK-30388 )
卫星状态:
在轨 (已飞行1018 天)
发射日期:
2023-09-04 UTC
国别 :
美国 (US)
星等 :
--
轨道信息
数据来源 国际轨道数据 AOE轨道数据
星历时间 2026-06-16T14:08:43+0800
2天前
查看轨道信息
2026-06-15T11:00:00+0800
3天前
查看轨道信息
半长轴 6861.191km 6861.185km
偏心率 0.0001936 0.0001626
轨道倾角 43.006° 43.005°
近地点辐角 250.938° 246.396°
升交点赤经 357.630° 4.027°
平近点角 109.127° 6.359°
近地点 481.725km 481.932km
远地点 484.383km 484.164km
周期 94.267分钟 94.267分钟
每日圈数 15.275784 15.275805
详细信息
固有亮度:
5
最大亮度:
0.3
卫星平台:
Starlink v2.0 mini
覆盖范围:
全球
运营商:
太空探索技术公司
运营商所在国:
美国
制造商(研发单位):
太空探索技术公司
制造商所在国:
美国
使用方式:
暂无
卫星简介
星链(Starlink)计划是由太空探索技术公司(SpaceX)提出的一个巨型低轨卫星互联网星座项目,计划在2019年至2024年间在太空搭建由约1.2万颗卫星组成的“星链”网络,其中1584颗将部署在地球上空550千米处的近地轨道,并从2020年开始工作。该卫星仍在工作。
2D轨道图
3D轨道图
轨道高度分析图
轨道倾角分析图
轨道综合分析图
查看轨道综合分析图